User: anonymous
Location: Cimarron National Grasslands
(37.1250°N, 101.7500°W)
Time: 06:39:54
(UTC-05:00)
Language:

Ariane Rocket - Orbit

View from above orbital plane
View from above orbital plane
View from above satellite
View from above satellite

Ground track
Ground track

The orbit data is extracted from the following two-line orbital elements,

1 23561U 95021B   14243.82919959  .00000175  00000-0  73999-4 0  8476
2 23561 098.6902 210.7536 0007793 048.8772 008.2290 14.37305493 14644
Epoch (UTC): 31 August 2014 19:54:02
Eccentricity: 0.0007793
inclination: 98.6902°
perigee height: 762 km
apogee height: 773 km
right ascension of ascending node: 210.7536°
argument of perigee: 48.8772°
revolutions per day: 14.37305493
mean anomaly at epoch: 8.2290°
orbit number at epoch: 1464

The dashed part of the orbit path shows where the satellite is in the earth's shadow,  

DLR